Time,TemperatureF,DewpointF,PressureIn,WindDirection,WindDirectionDegrees,WindSpeedMPH,WindSpeedGustMPH,Humidity,HourlyPrecipIn,Conditions,Clouds,dailyrainin,SoftwareType,DateUTC
2013-06-01 00:01:00,69.7,65.0,30.03,ESE,109,0.0,0.0,85,0.00,,,0.00,Wunderground v.1.15,2013-06-01 04:01:00,
2013-06-01 00:02:00,69.7,65.0,30.03,ESE,109,0.0,0.0,85,0.00,,,0.00,Wunderground v.1.15,2013-06-01 04:02:00,
2013-06-01 00:03:00,69.7,65.0,30.03,North,-999,0.0,0.0,85,0.00,,,-99.99,WeatherLink 6.0.0,2013-06-01 04:03:00,
2013-06-01 00:08:00,69.5,65.1,30.03,ESE,109,0.0,0.0,86,0.00,,,0.00,Wunderground v.1.15,2013-06-01 04:08:00,
2013-06-01 00:14:00,69.4,65.0,30.03,ESE,109,0.0,0.0,86,0.00,,,0.00,Wunderground v.1.15,2013-06-01 04:14:00,
2013-06-01 00:15:00,69.4,65.0,30.03,ESE,109,0.0,0.0,86,0.00,,,0.00,Wunderground v.1.15,2013-06-01 04:15:00,
2013-06-01 00:20:00,69.4,65.0,30.03,ESE,109,0.0,0.0,86,0.00,,,0.00,Wunderground v.1.15,2013-06-01 04:20:00,
2013-06-01 00:26:00,69.4,65.4,30.03,ESE,109,0.0,0.0,87,0.00,,,0.00,Wunderground v.1.15,2013-06-01 04:26:00,
2013-06-01 00:31:00,69.3,65.3,30.03,ESE,109,0.0,0.0,87,0.00,,,0.00,Wunderground v.1.15,2013-06-01 04:31:00,
2013-06-01 00:37:00,69.3,65.3,30.02,ESE,109,0.0,0.0,87,0.00,,,0.00,Wunderground v.1.15,2013-06-01 04:37:00,
2013-06-01 00:42:00,69.3,65.3,30.02,ESE,109,0.0,0.0,87,0.00,,,0.00,Wunderground v.1.15,2013-06-01 04:42:00,
2013-06-01 00:48:00,69.5,65.1,30.02,ESE,109,0.0,0.0,86,0.00,,,0.00,Wunderground v.1.15,2013-06-01 04:48:00,
2013-06-01 00:53:00,69.6,65.6,30.02,ESE,109,0.0,0.0,87,0.00,,,0.00,Wunderground v.1.15,2013-06-01 04:53:00,
2013-06-01 00:59:00,69.7,65.7,30.02,ESE,109,0.0,0.0,87,0.00,,,0.00,Wunderground v.1.15,2013-06-01 04:59:00,
2013-06-01 01:04:00,69.8,65.4,30.02,ESE,109,0.0,0.0,86,0.00,,,0.00,Wunderground v.1.15,2013-06-01 05:04:00,
2013-06-01 01:09:00,70.1,65.7,30.03,South,179,0.0,0.0,86,0.00,,,0.00,Wunderground v.1.15,2013-06-01 05:09:00,
2013-06-01 01:15:00,70.6,65.9,30.02,South,172,0.0,0.0,85,0.00,,,0.00,Wunderground v.1.15,2013-06-01 05:15:00,
2013-06-01 01:20:00,70.9,66.5,30.02,South,173,1.0,1.0,86,0.00,,,0.00,Wunderground v.1.15,2013-06-01 05:20:00,
2013-06-01 01:26:00,70.8,66.4,30.02,SE,145,0.0,1.0,86,0.00,,,0.00,Wunderground v.1.15,2013-06-01 05:26:00,
2013-06-01 01:31:00,70.5,66.4,30.02,SE,145,0.0,0.0,87,0.00,,,0.00,Wunderground v.1.15,2013-06-01 05:31:00,
2013-06-01 01:37:00,70.2,66.5,30.02,SE,145,0.0,0.0,88,0.00,,,0.00,Wunderground v.1.15,2013-06-01 05:37:00,
2013-06-01 01:42:00,69.8,66.1,30.02,SE,145,0.0,0.0,88,0.00,,,0.00,Wunderground v.1.15,2013-06-01 05:42:00,
2013-06-01 01:48:00,69.6,65.9,30.02,SSE,157,2.0,2.0,88,0.00,,,0.00,Wunderground v.1.15,2013-06-01 05:48:00,
2013-06-01 01:53:00,69.6,65.9,30.02,SSE,150,0.0,0.0,88,0.00,,,0.00,Wunderground v.1.15,2013-06-01 05:53:00,
2013-06-01 01:59:00,69.6,65.9,30.02,SE,137,1.0,1.0,88,0.00,,,0.00,Wunderground v.1.15,2013-06-01 05:59:00,
2013-06-01 02:00:00,69.6,65.9,30.02,SE,135,0.0,3.0,88,0.00,,,-99.99,WeatherLink 6.0.0,2013-06-01 06:00:00,
2013-06-01 02:04:00,69.6,65.9,30.02,SE,137,0.0,1.0,88,0.00,,,0.00,Wunderground v.1.15,2013-06-01 06:04:00,
2013-06-01 02:09:00,69.5,65.8,30.02,SE,145,0.0,1.0,88,0.00,,,0.00,Wunderground v.1.15,2013-06-01 06:09:00,
2013-06-01 02:14:00,69.4,66.0,30.02,SSW,199,0.0,7.0,89,0.00,,,0.00,Wunderground v.1.15,2013-06-01 06:14:00,
2013-06-01 02:19:00,69.4,66.0,30.02,ESE,114,0.0,7.0,89,0.00,,,0.00,Wunderground v.1.15,2013-06-01 06:19:00,
2013-06-01 02:24:00,69.3,65.9,30.02,ESE,114,0.0,1.0,89,0.00,,,0.00,Wunderground v.1.15,2013-06-01 06:24:00,
2013-06-01 02:29:00,69.2,66.1,30.02,South,171,0.0,2.0,90,0.00,,,0.00,Wunderground v.1.15,2013-06-01 06:29:00,
2013-06-01 02:34:00,69.0,65.9,30.03,South,171,0.0,1.0,90,0.00,,,0.00,Wunderground v.1.15,2013-06-01 06:34:00,
2013-06-01 02:39:00,68.9,65.8,30.03,South,171,0.0,1.0,90,0.00,,,0.00,Wunderground v.1.15,2013-06-01 06:39:00,
2013-06-01 02:44:00,68.8,65.7,30.03,South,171,0.0,1.0,90,0.00,,,0.00,Wunderground v.1.15,2013-06-01 06:44:00,
2013-06-01 02:49:00,68.8,66.1,30.03,East,98,0.0,3.0,91,0.00,,,0.00,Wunderground v.1.15,2013-06-01 06:49:00,
2013-06-01 02:54:00,68.9,66.2,30.03,ESE,107,0.0,1.0,91,0.00,,,0.00,Wunderground v.1.15,2013-06-01 06:54:00,
2013-06-01 02:59:00,68.9,66.2,30.03,SE,133,0.0,5.0,91,0.00,,,0.00,Wunderground v.1.15,2013-06-01 06:59:00,
2013-06-01 03:04:00,68.9,66.2,30.03,SSE,149,1.0,4.0,91,0.00,,,0.00,Wunderground v.1.15,2013-06-01 07:04:00,
2013-06-01 03:09:00,68.9,66.2,30.03,SSE,163,0.0,4.0,91,0.00,,,0.00,Wunderground v.1.15,2013-06-01 07:09:00,
2013-06-01 03:14:00,68.8,66.1,30.03,South,186,0.0,3.0,91,0.00,,,0.00,Wunderground v.1.15,2013-06-01 07:14:00,
2013-06-01 03:19:00,68.8,66.1,30.03,South,179,0.0,3.0,91,0.00,,,0.00,Wunderground v.1.15,2013-06-01 07:19:00,
2013-06-01 03:24:00,68.7,66.3,30.03,South,171,0.0,2.0,92,0.00,,,0.00,Wunderground v.1.15,2013-06-01 07:24:00,
2013-06-01 03:29:00,68.6,66.2,30.03,South,171,0.0,0.0,92,0.00,,,0.00,Wunderground v.1.15,2013-06-01 07:29:00,
2013-06-01 03:34:00,68.5,66.1,30.03,South,171,0.0,1.0,92,0.00,,,0.00,Wunderground v.1.15,2013-06-01 07:34:00,
2013-06-01 03:39:00,68.4,66.0,30.03,SSE,150,1.0,1.0,92,0.00,,,0.00,Wunderground v.1.15,2013-06-01 07:39:00,
2013-06-01 03:44:00,68.4,66.0,30.03,SSE,152,0.0,2.0,92,0.00,,,0.00,Wunderground v.1.15,2013-06-01 07:44:00,
2013-06-01 03:49:00,68.2,65.8,30.03,SSE,153,1.0,1.0,92,0.00,,,0.00,Wunderground v.1.15,2013-06-01 07:49:00,
2013-06-01 03:54:00,68.1,66.0,30.03,SSE,152,0.0,1.0,93,0.00,,,0.00,Wunderground v.1.15,2013-06-01 07:54:00,
2013-06-01 03:59:00,68.0,65.9,30.03,SSE,152,0.0,0.0,93,0.00,,,0.00,Wunderground v.1.15,2013-06-01 07:59:00,
2013-06-01 04:04:00,68.0,65.9,30.03,SE,136,0.0,4.0,93,0.00,,,0.00,Wunderground v.1.15,2013-06-01 08:04:00,
2013-06-01 04:10:00,68.0,65.9,30.03,SE,136,1.0,1.0,93,0.00,,,0.00,Wunderground v.1.15,2013-06-01 08:10:00,
2013-06-01 04:15:00,68.0,65.9,30.03,ESE,114,0.0,3.0,93,0.00,,,0.00,Wunderground v.1.15,2013-06-01 08:15:00,
2013-06-01 04:19:00,68.0,65.9,30.03,SSE,163,0.0,2.0,93,0.00,,,0.00,Wunderground v.1.15,2013-06-01 08:19:00,
2013-06-01 04:24:00,68.1,66.0,30.03,SSE,164,0.0,6.0,93,0.00,,,0.00,Wunderground v.1.15,2013-06-01 08:24:00,
2013-06-01 04:30:00,68.1,66.0,30.02,SSE,152,0.0,1.0,93,0.00,,,0.00,Wunderground v.1.15,2013-06-01 08:30:00,
2013-06-01 04:35:00,68.0,65.9,30.03,SSE,157,0.0,1.0,93,0.00,,,0.00,Wunderground v.1.15,2013-06-01 08:35:00,
2013-06-01 04:40:00,67.9,65.8,30.03,SE,136,0.0,0.0,93,0.00,,,0.00,Wunderground v.1.15,2013-06-01 08:40:00,
2013-06-01 04:45:00,67.8,66.0,30.03,SE,136,0.0,1.0,94,0.00,,,0.00,Wunderground v.1.15,2013-06-01 08:45:00,
2013-06-01 04:50:00,67.7,65.9,30.02,SE,136,0.0,0.0,94,0.00,,,0.00,Wunderground v.1.15,2013-06-01 08:50:00,
2013-06-01 04:55:00,67.7,65.9,30.02,SE,143,0.0,3.0,94,0.00,,,0.00,Wunderground v.1.15,2013-06-01 08:55:00,
2013-06-01 05:00:00,67.6,65.8,30.02,SE,126,0.0,2.0,94,0.00,,,0.00,Wunderground v.1.15,2013-06-01 09:00:00,
2013-06-01 05:05:00,67.6,65.8,30.03,SE,146,0.0,5.0,94,0.00,,,0.00,Wunderground v.1.15,2013-06-01 09:05:00,
2013-06-01 05:10:00,67.5,66.0,30.03,SE,129,0.0,1.0,95,0.00,,,0.00,Wunderground v.1.15,2013-06-01 09:10:00,
2013-06-01 05:15:00,67.4,65.9,30.02,SE,140,1.0,2.0,95,0.00,,,0.00,Wunderground v.1.15,2013-06-01 09:15:00,
2013-06-01 05:20:00,67.4,65.9,30.02,SE,140,0.0,0.0,95,0.00,,,0.00,Wunderground v.1.15,2013-06-01 09:20:00,
2013-06-01 05:25:00,67.3,65.8,30.02,SE,142,0.0,2.0,95,0.00,,,0.00,Wunderground v.1.15,2013-06-01 09:25:00,
2013-06-01 05:30:00,67.2,65.7,30.03,ESE,117,1.0,2.0,95,0.00,,,0.00,Wunderground v.1.15,2013-06-01 09:30:00,
2013-06-01 05:35:00,67.2,65.7,30.02,ESE,117,0.0,2.0,95,0.00,,,0.00,Wunderground v.1.15,2013-06-01 09:35:00,
2013-06-01 05:40:00,67.2,65.7,30.03,ESE,115,1.0,2.0,95,0.00,,,0.00,Wunderground v.1.15,2013-06-01 09:40:00,
2013-06-01 05:45:00,67.2,65.7,30.03,ESE,116,0.0,2.0,95,0.00,,,0.00,Wunderground v.1.15,2013-06-01 09:45:00,
2013-06-01 05:50:00,67.2,65.7,30.03,ESE,121,0.0,0.0,95,0.00,,,0.00,Wunderground v.1.15,2013-06-01 09:50:00,
2013-06-01 05:55:00,67.2,65.7,30.03,East,88,0.0,2.0,95,0.00,,,0.00,Wunderground v.1.15,2013-06-01 09:55:00,
2013-06-01 06:00:00,67.1,65.6,30.03,SE,132,0.0,0.0,95,0.00,,,0.00,Wunderground v.1.15,2013-06-01 10:00:00,
2013-06-01 06:05:00,67.1,65.6,30.03,SE,139,0.0,4.0,95,0.00,,,0.00,Wunderground v.1.15,2013-06-01 10:05:00,
2013-06-01 06:10:00,67.1,65.6,30.03,SE,139,0.0,0.0,95,0.00,,,0.00,Wunderground v.1.15,2013-06-01 10:10:00,
2013-06-01 06:15:00,67.0,65.5,30.03,South,173,0.0,2.0,95,0.00,,,0.00,Wunderground v.1.15,2013-06-01 10:15:00,
2013-06-01 06:20:00,66.9,65.4,30.03,SE,134,0.0,2.0,95,0.00,,,0.00,Wunderground v.1.15,2013-06-01 10:20:00,
2013-06-01 06:25:00,66.8,65.3,30.03,SE,137,1.0,3.0,95,0.00,,,0.00,Wunderground v.1.15,2013-06-01 10:25:00,
2013-06-01 06:30:00,66.8,65.6,30.03,SE,137,0.0,1.0,96,0.00,,,0.00,Wunderground v.1.15,2013-06-01 10:30:00,
2013-06-01 06:35:00,66.8,65.6,30.03,South,191,1.0,3.0,96,0.00,,,0.00,Wunderground v.1.15,2013-06-01 10:35:00,
2013-06-01 06:40:00,66.8,65.6,30.03,South,191,0.0,0.0,96,0.00,,,0.00,Wunderground v.1.15,2013-06-01 10:40:00,
2013-06-01 06:45:00,66.8,65.6,30.03,SSE,151,0.0,4.0,96,0.00,,,0.00,Wunderground v.1.15,2013-06-01 10:45:00,
2013-06-01 06:50:00,66.9,65.7,30.03,SE,146,0.0,1.0,96,0.00,,,0.00,Wunderground v.1.15,2013-06-01 10:50:00,
2013-06-01 06:55:00,67.1,65.9,30.03,SSE,147,0.0,2.0,96,0.00,,,0.00,Wunderground v.1.15,2013-06-01 10:55:00,
2013-06-01 07:00:00,67.1,65.9,30.03,SSE,147,1.0,1.0,96,0.00,,,0.00,Wunderground v.1.15,2013-06-01 11:00:00,
2013-06-01 07:06:00,67.4,66.2,30.03,SE,130,0.0,4.0,96,0.00,,,0.00,Wunderground v.1.15,2013-06-01 11:06:00,
2013-06-01 07:11:00,67.5,66.3,30.03,SE,138,0.0,2.0,96,0.00,,,0.00,Wunderground v.1.15,2013-06-01 11:11:00,
2013-06-01 07:16:00,67.6,66.4,30.03,SE,142,0.0,4.0,96,0.00,,,0.00,Wunderground v.1.15,2013-06-01 11:16:00,
2013-06-01 07:21:00,67.6,66.4,30.03,ESE,115,0.0,1.0,96,0.00,,,0.00,Wunderground v.1.15,2013-06-01 11:21:00,
2013-06-01 07:26:00,67.9,66.7,30.03,SE,128,0.0,5.0,96,0.00,,,0.00,Wunderground v.1.15,2013-06-01 11:26:00,
2013-06-01 07:31:00,68.2,67.0,30.03,East,83,3.0,3.0,96,0.00,,,0.00,Wunderground v.1.15,2013-06-01 11:31:00,
2013-06-01 07:36:00,68.7,67.2,30.03,SE,134,3.0,4.0,95,0.00,,,0.00,Wunderground v.1.15,2013-06-01 11:36:00,
2013-06-01 07:41:00,69.2,67.7,30.03,SE,135,0.0,1.0,95,0.00,,,0.00,Wunderground v.1.15,2013-06-01 11:41:00,
2013-06-01 07:46:00,69.7,67.9,30.03,SSE,152,1.0,6.0,94,0.00,,,0.00,Wunderground v.1.15,2013-06-01 11:46:00,
2013-06-01 07:51:00,70.3,68.2,30.03,SE,126,0.0,1.0,93,0.00,,,0.00,Wunderground v.1.15,2013-06-01 11:51:00,
2013-06-01 07:56:00,70.8,68.4,30.03,SSE,167,0.0,4.0,92,0.00,,,0.00,Wunderground v.1.15,2013-06-01 11:56:00,
2013-06-01 08:01:00,71.3,68.5,30.03,SSE,167,0.0,1.0,91,0.00,,,0.00,Wunderground v.1.15,2013-06-01 12:01:00,
2013-06-01 08:06:00,71.8,68.4,30.03,SE,127,0.0,5.0,89,0.00,,,0.00,Wunderground v.1.15,2013-06-01 12:06:00,
2013-06-01 08:11:00,72.3,68.9,30.03,SSE,155,1.0,6.0,89,0.00,,,0.00,Wunderground v.1.15,2013-06-01 12:11:00,
2013-06-01 08:16:00,72.8,69.0,30.03,SSE,163,0.0,6.0,88,0.00,,,0.00,Wunderground v.1.15,2013-06-01 12:16:00,
2013-06-01 08:21:00,73.3,69.2,30.03,East,96,1.0,2.0,87,0.00,,,0.00,Wunderground v.1.15,2013-06-01 12:21:00,
2013-06-01 08:26:00,74.1,69.3,30.03,SE,137,1.0,5.0,85,0.00,,,0.00,Wunderground v.1.15,2013-06-01 12:26:00,
2013-06-01 08:31:00,74.3,68.8,30.03,ESE,111,0.0,5.0,83,0.00,,,0.00,Wunderground v.1.15,2013-06-01 12:31:00,
2013-06-01 08:36:00,74.8,69.3,30.03,SE,134,0.0,5.0,83,0.00,,,0.00,Wunderground v.1.15,2013-06-01 12:36:00,
2013-06-01 08:41:00,75.5,69.6,30.03,SSE,165,0.0,2.0,82,0.00,,,0.00,Wunderground v.1.15,2013-06-01 12:41:00,
2013-06-01 08:46:00,76.0,69.7,30.03,SE,138,0.0,5.0,81,0.00,,,0.00,Wunderground v.1.15,2013-06-01 12:46:00,
2013-06-01 08:51:00,76.2,69.2,30.03,SW,236,1.0,2.0,79,0.00,,,0.00,Wunderground v.1.15,2013-06-01 12:51:00,
2013-06-01 08:56:00,76.4,69.0,30.03,ESE,111,0.0,4.0,78,0.00,,,0.00,Wunderground v.1.15,2013-06-01 12:56:00,
2013-06-01 09:01:00,77.1,69.3,30.03,ESE,113,0.0,3.0,77,0.00,,,0.00,Wunderground v.1.15,2013-06-01 13:01:00,
2013-06-01 09:06:00,77.6,69.0,30.03,SE,136,1.0,5.0,75,0.00,,,0.00,Wunderground v.1.15,2013-06-01 13:06:00,
2013-06-01 09:11:00,77.8,68.0,30.03,NE,47,0.0,3.0,72,0.00,,,0.00,Wunderground v.1.15,2013-06-01 13:11:00,
2013-06-01 09:16:00,78.0,68.6,30.03,SE,129,0.0,3.0,73,0.00,,,0.00,Wunderground v.1.15,2013-06-01 13:16:00,
2013-06-01 09:21:00,78.3,68.1,30.03,SSW,209,0.0,2.0,71,0.00,,,0.00,Wunderground v.1.15,2013-06-01 13:21:00,
2013-06-01 09:26:00,78.5,67.9,30.03,SE,138,1.0,4.0,70,0.00,,,0.00,Wunderground v.1.15,2013-06-01 13:26:00,
2013-06-01 09:31:00,78.7,67.2,30.03,ESE,106,1.0,3.0,68,0.00,,,0.00,Wunderground v.1.15,2013-06-01 13:31:00,
2013-06-01 09:36:00,78.8,67.3,30.03,South,188,0.0,6.0,68,0.00,,,0.00,Wunderground v.1.15,2013-06-01 13:36:00,
2013-06-01 09:41:00,79.5,68.0,30.03,SE,136,0.0,3.0,68,0.00,,,0.00,Wunderground v.1.15,2013-06-01 13:41:00,
2013-06-01 09:46:00,79.8,67.9,30.03,SSW,213,2.0,6.0,67,0.00,,,0.00,Wunderground v.1.15,2013-06-01 13:46:00,
2013-06-01 09:51:00,79.7,68.2,30.02,NE,37,1.0,2.0,68,0.00,,,0.00,Wunderground v.1.15,2013-06-01 13:51:00,
2013-06-01 09:56:00,79.7,68.2,30.02,WNW,299,2.0,4.0,68,0.00,,,0.00,Wunderground v.1.15,2013-06-01 13:56:00,
2013-06-01 10:01:00,79.7,67.8,30.03,SE,130,1.0,7.0,67,0.00,,,0.00,Wunderground v.1.15,2013-06-01 14:01:00,
2013-06-01 10:07:00,80.3,68.8,30.03,SE,134,4.0,7.0,68,0.00,,,0.00,Wunderground v.1.15,2013-06-01 14:07:00,
2013-06-01 10:12:00,80.5,69.0,30.02,ESE,111,1.0,4.0,68,0.00,,,0.00,Wunderground v.1.15,2013-06-01 14:12:00,
2013-06-01 10:17:00,80.6,69.5,30.02,ESE,109,5.0,7.0,69,0.00,,,0.00,Wunderground v.1.15,2013-06-01 14:17:00,
2013-06-01 10:22:00,79.9,68.4,30.02,East,99,0.0,7.0,68,0.00,,,0.00,Wunderground v.1.15,2013-06-01 14:22:00,
2013-06-01 10:27:00,79.7,67.3,30.03,SSE,161,0.0,10.0,66,0.00,,,0.00,Wunderground v.1.15,2013-06-01 14:27:00,
2013-06-01 10:32:00,80.4,67.6,30.02,SSE,168,1.0,6.0,65,0.00,,,0.00,Wunderground v.1.15,2013-06-01 14:32:00,
2013-06-01 10:37:00,80.7,68.3,30.02,SE,137,2.0,10.0,66,0.00,,,0.00,Wunderground v.1.15,2013-06-01 14:37:00,
2013-06-01 10:42:00,80.7,67.8,30.02,East,96,3.0,5.0,65,0.00,,,0.00,Wunderground v.1.15,2013-06-01 14:42:00,
2013-06-01 10:47:00,81.2,68.8,30.02,SSE,165,2.0,5.0,66,0.00,,,0.00,Wunderground v.1.15,2013-06-01 14:47:00,
2013-06-01 10:52:00,81.5,68.6,30.02,SSW,197,2.0,5.0,65,0.00,,,0.00,Wunderground v.1.15,2013-06-01 14:52:00,
2013-06-01 10:57:00,81.7,68.3,30.02,SE,142,0.0,10.0,64,0.00,,,0.00,Wunderground v.1.15,2013-06-01 14:57:00,
2013-06-01 11:00:00,81.9,68.5,30.02,ESE,112,2.0,13.0,64,0.00,,,-99.99,WeatherLink 6.0.0,2013-06-01 15:00:00,
2013-06-01 11:02:00,82.0,69.1,30.02,South,178,3.0,6.0,65,0.00,,,0.00,Wunderground v.1.15,2013-06-01 15:02:00,
2013-06-01 11:07:00,81.4,67.6,30.02,SE,124,9.0,9.0,63,0.00,,,0.00,Wunderground v.1.15,2013-06-01 15:07:00,
2013-06-01 11:12:00,81.7,69.2,30.02,ESE,109,4.0,6.0,66,0.00,,,0.00,Wunderground v.1.15,2013-06-01 15:12:00,
2013-06-01 11:17:00,82.1,69.2,30.02,East,88,3.0,7.0,65,0.00,,,0.00,Wunderground v.1.15,2013-06-01 15:17:00,
2013-06-01 11:22:00,82.2,68.8,30.02,ENE,58,1.0,4.0,64,0.00,,,0.00,Wunderground v.1.15,2013-06-01 15:22:00,
2013-06-01 11:27:00,82.2,69.3,30.02,South,177,1.0,9.0,65,0.00,,,0.00,Wunderground v.1.15,2013-06-01 15:27:00,
2013-06-01 11:32:00,82.0,67.7,30.03,ENE,72,0.0,4.0,62,0.00,,,0.00,Wunderground v.1.15,2013-06-01 15:32:00,
2013-06-01 11:37:00,82.4,69.4,30.02,ESE,111,1.0,4.0,65,0.00,,,0.00,Wunderground v.1.15,2013-06-01 15:37:00,
2013-06-01 11:43:00,82.8,67.5,30.03,East,101,0.0,5.0,60,0.00,,,0.00,Wunderground v.1.15,2013-06-01 15:43:00,
2013-06-01 11:48:00,83.0,69.1,30.03,SSE,148,0.0,5.0,63,0.00,,,0.00,Wunderground v.1.15,2013-06-01 15:48:00,
2013-06-01 11:53:00,83.5,69.6,30.03,SSE,164,0.0,5.0,63,0.00,,,0.00,Wunderground v.1.15,2013-06-01 15:53:00,
2013-06-01 11:58:00,83.8,68.9,30.02,SE,126,0.0,5.0,61,0.00,,,0.00,Wunderground v.1.15,2013-06-01 15:58:00,
2013-06-01 12:03:00,84.1,68.7,30.02,ESE,112,1.0,11.0,60,0.00,,,-99.99,WeatherLink 6.0.0,2013-06-01 16:03:00,
2013-06-01 12:08:00,83.2,68.3,30.02,SSW,213,9.0,10.0,61,0.00,,,0.00,Wunderground v.1.15,2013-06-01 16:08:00,
2013-06-01 12:13:00,83.0,68.2,30.02,ESE,123,4.0,7.0,61,0.00,,,0.00,Wunderground v.1.15,2013-06-01 16:13:00,
2013-06-01 12:18:00,83.4,69.5,30.02,SE,134,3.0,7.0,63,0.00,,,0.00,Wunderground v.1.15,2013-06-01 16:18:00,
2013-06-01 12:23:00,83.5,67.7,30.01,SE,128,0.0,6.0,59,0.00,,,0.00,Wunderground v.1.15,2013-06-01 16:23:00,
2013-06-01 12:28:00,83.5,67.7,30.01,SE,133,1.0,11.0,59,0.00,,,0.00,Wunderground v.1.15,2013-06-01 16:28:00,
2013-06-01 12:33:00,83.3,68.4,30.02,East,90,3.0,6.0,61,0.00,,,0.00,Wunderground v.1.15,2013-06-01 16:33:00,
2013-06-01 12:38:00,83.4,67.6,30.01,SE,142,2.0,9.0,59,0.00,,,0.00,Wunderground v.1.15,2013-06-01 16:38:00,
2013-06-01 12:43:00,84.1,69.7,30.01,South,190,1.0,6.0,62,0.00,,,0.00,Wunderground v.1.15,2013-06-01 16:43:00,
2013-06-01 12:48:00,84.6,67.7,30.01,SSW,207,3.0,6.0,57,0.00,,,0.00,Wunderground v.1.15,2013-06-01 16:48:00,
2013-06-01 12:53:00,85.2,68.8,30.01,SE,125,4.0,7.0,58,0.00,,,0.00,Wunderground v.1.15,2013-06-01 16:53:00,
2013-06-01 12:58:00,85.0,68.1,30.01,South,189,0.0,7.0,57,0.00,,,0.00,Wunderground v.1.15,2013-06-01 16:58:00,
2013-06-01 13:03:00,84.8,69.4,30.00,East,101,3.0,10.0,60,0.00,,,0.00,Wunderground v.1.15,2013-06-01 17:03:00,
2013-06-01 13:08:00,84.8,68.4,30.01,East,90,4.0,10.0,58,0.00,,,0.00,Wunderground v.1.15,2013-06-01 17:08:00,
2013-06-01 13:14:00,84.3,68.4,30.01,ESE,113,2.0,10.0,59,0.00,,,0.00,Wunderground v.1.15,2013-06-01 17:14:00,
2013-06-01 13:19:00,84.6,68.7,30.00,South,180,1.0,10.0,59,0.00,,,0.00,Wunderground v.1.15,2013-06-01 17:19:00,
2013-06-01 13:24:00,85.1,68.7,30.00,ESE,121,2.0,6.0,58,0.00,,,0.00,Wunderground v.1.15,2013-06-01 17:24:00,
2013-06-01 13:29:00,85.7,69.7,30.00,SE,142,4.0,7.0,59,0.00,,,0.00,Wunderground v.1.15,2013-06-01 17:29:00,
2013-06-01 13:34:00,85.7,69.2,30.00,SSW,194,1.0,11.0,58,0.00,,,0.00,Wunderground v.1.15,2013-06-01 17:34:00,
2013-06-01 13:39:00,85.5,69.5,30.00,ESE,120,1.0,11.0,59,0.00,,,0.00,Wunderground v.1.15,2013-06-01 17:39:00,
2013-06-01 13:44:00,84.7,68.8,30.00,East,99,3.0,7.0,59,0.00,,,0.00,Wunderground v.1.15,2013-06-01 17:44:00,
2013-06-01 13:49:00,84.5,68.6,30.00,SSW,202,0.0,7.0,59,0.00,,,0.00,Wunderground v.1.15,2013-06-01 17:49:00,
2013-06-01 13:54:00,84.2,68.3,30.00,East,100,3.0,9.0,59,0.00,,,0.00,Wunderground v.1.15,2013-06-01 17:54:00,
2013-06-01 13:59:00,84.0,68.1,30.00,East,95,6.0,9.0,59,0.00,,,0.00,Wunderground v.1.15,2013-06-01 17:59:00,
2013-06-01 14:04:00,84.0,69.6,30.00,SE,133,4.0,10.0,62,0.00,,,0.00,Wunderground v.1.15,2013-06-01 18:04:00,
2013-06-01 14:09:00,84.5,69.1,29.99,SE,137,5.0,10.0,60,0.00,,,0.00,Wunderground v.1.15,2013-06-01 18:09:00,
2013-06-01 14:14:00,84.8,67.9,29.99,East,86,0.0,5.0,57,0.00,,,0.00,Wunderground v.1.15,2013-06-01 18:14:00,
2013-06-01 14:19:00,85.3,67.3,29.99,South,172,0.0,6.0,55,0.00,,,0.00,Wunderground v.1.15,2013-06-01 18:19:00,
2013-06-01 14:24:00,85.8,68.8,29.99,SSE,163,3.0,5.0,57,0.00,,,0.00,Wunderground v.1.15,2013-06-01 18:24:00,
2013-06-01 14:29:00,85.8,68.3,29.99,ESE,120,5.0,9.0,56,0.00,,,0.00,Wunderground v.1.15,2013-06-01 18:29:00,
2013-06-01 14:34:00,85.6,68.1,29.98,South,173,1.0,5.0,56,0.00,,,0.00,Wunderground v.1.15,2013-06-01 18:34:00,
2013-06-01 14:39:00,85.4,68.9,29.98,SSW,203,0.0,5.0,58,0.00,,,0.00,Wunderground v.1.15,2013-06-01 18:39:00,
2013-06-01 14:44:00,84.9,68.5,29.98,SE,132,0.0,10.0,58,0.00,,,0.00,Wunderground v.1.15,2013-06-01 18:44:00,
2013-06-01 14:49:00,84.8,68.4,29.98,South,185,2.0,10.0,58,0.00,,,0.00,Wunderground v.1.15,2013-06-01 18:49:00,
2013-06-01 14:54:00,85.1,68.2,29.98,East,101,7.0,13.0,57,0.00,,,0.00,Wunderground v.1.15,2013-06-01 18:54:00,
2013-06-01 14:59:00,85.3,68.3,29.98,WSW,248,1.0,13.0,57,0.00,,,0.00,Wunderground v.1.15,2013-06-01 18:59:00,
2013-06-01 15:04:00,85.3,67.8,29.98,SSW,207,1.0,6.0,56,0.00,,,0.00,Wunderground v.1.15,2013-06-01 19:04:00,
2013-06-01 15:10:00,85.4,68.9,29.98,SSE,166,0.0,2.0,58,0.00,,,0.00,Wunderground v.1.15,2013-06-01 19:10:00,
2013-06-01 15:15:00,85.3,68.3,29.98,West,277,1.0,14.0,57,0.00,,,0.00,Wunderground v.1.15,2013-06-01 19:15:00,
2013-06-01 15:20:00,85.2,68.2,29.98,SSW,192,2.0,3.0,57,0.00,,,0.00,Wunderground v.1.15,2013-06-01 19:20:00,
2013-06-01 15:25:00,85.2,68.8,29.97,South,182,2.0,11.0,58,0.00,,,0.00,Wunderground v.1.15,2013-06-01 19:25:00,
2013-06-01 15:30:00,85.5,69.5,29.97,ESE,122,15.0,15.0,59,0.00,,,0.00,Wunderground v.1.15,2013-06-01 19:30:00,
2013-06-01 15:35:00,85.2,68.8,29.97,SSE,154,2.0,15.0,58,0.00,,,0.00,Wunderground v.1.15,2013-06-01 19:35:00,
2013-06-01 15:40:00,85.3,69.3,29.97,SW,236,1.0,3.0,59,0.00,,,0.00,Wunderground v.1.15,2013-06-01 19:40:00,
2013-06-01 15:45:00,86.3,68.8,29.96,ENE,75,2.0,9.0,56,0.00,,,0.00,Wunderground v.1.15,2013-06-01 19:45:00,
2013-06-01 15:50:00,85.9,68.9,29.97,NW,310,1.0,2.0,57,0.00,,,0.00,Wunderground v.1.15,2013-06-01 19:50:00,
2013-06-01 15:55:00,85.5,69.0,29.97,East,82,1.0,6.0,58,0.00,,,0.00,Wunderground v.1.15,2013-06-01 19:55:00,
2013-06-01 16:00:00,86.1,69.1,29.97,East,99,0.0,1.0,57,0.00,,,0.00,Wunderground v.1.15,2013-06-01 20:00:00,
2013-06-01 16:05:00,85.9,67.9,29.97,SSE,160,1.0,10.0,55,0.00,,,0.00,Wunderground v.1.15,2013-06-01 20:05:00,
2013-06-01 16:10:00,85.5,67.5,29.97,SE,128,0.0,2.0,55,0.00,,,0.00,Wunderground v.1.15,2013-06-01 20:10:00,
2013-06-01 16:15:00,85.4,67.4,29.97,ESE,121,2.0,3.0,55,0.00,,,0.00,Wunderground v.1.15,2013-06-01 20:15:00,
2013-06-01 16:20:00,84.7,67.3,29.97,SSE,148,3.0,5.0,56,0.00,,,0.00,Wunderground v.1.15,2013-06-01 20:20:00,
2013-06-01 16:25:00,84.3,67.4,29.97,SE,144,1.0,11.0,57,0.00,,,0.00,Wunderground v.1.15,2013-06-01 20:25:00,
2013-06-01 16:30:00,83.9,66.5,29.97,ENE,71,3.0,4.0,56,0.00,,,0.00,Wunderground v.1.15,2013-06-01 20:30:00,
2013-06-01 16:35:00,83.6,67.3,29.97,SSE,165,3.0,10.0,58,0.00,,,0.00,Wunderground v.1.15,2013-06-01 20:35:00,
2013-06-01 16:40:00,83.6,67.3,29.96,ENE,76,0.0,2.0,58,0.00,,,0.00,Wunderground v.1.15,2013-06-01 20:40:00,
2013-06-01 16:45:00,85.0,68.1,29.96,ENE,64,1.0,2.0,57,0.00,,,0.00,Wunderground v.1.15,2013-06-01 20:45:00,
2013-06-01 16:50:00,86.0,68.5,29.96,ESE,107,2.0,2.0,56,0.00,,,0.00,Wunderground v.1.15,2013-06-01 20:50:00,
2013-06-01 16:55:00,85.9,68.4,29.96,SSW,194,1.0,8.0,56,0.00,,,0.00,Wunderground v.1.15,2013-06-01 20:55:00,
2013-06-01 17:00:00,85.9,67.9,29.96,NE,49,1.0,2.0,55,0.00,,,0.00,Wunderground v.1.15,2013-06-01 21:00:00,
2013-06-01 17:05:00,85.8,67.8,29.96,South,183,0.0,3.0,55,0.00,,,0.00,Wunderground v.1.15,2013-06-01 21:05:00,
2013-06-01 17:10:00,85.6,67.6,29.96,ENE,69,1.0,1.0,55,0.00,,,0.00,Wunderground v.1.15,2013-06-01 21:10:00,
2013-06-01 17:15:00,85.0,67.0,29.96,SSW,199,1.0,5.0,55,0.00,,,0.00,Wunderground v.1.15,2013-06-01 21:15:00,
2013-06-01 17:20:00,84.1,66.2,29.96,ESE,103,2.0,4.0,55,0.00,,,0.00,Wunderground v.1.15,2013-06-01 21:20:00,
2013-06-01 17:25:00,83.4,66.1,29.97,ENE,65,1.0,6.0,56,0.00,,,0.00,Wunderground v.1.15,2013-06-01 21:25:00,
2013-06-01 17:30:00,83.0,66.2,29.96,ESE,118,9.0,13.0,57,0.00,,,0.00,Wunderground v.1.15,2013-06-01 21:30:00,
2013-06-01 17:35:00,82.7,66.4,29.96,NE,55,0.0,13.0,58,0.00,,,0.00,Wunderground v.1.15,2013-06-01 21:35:00,
2013-06-01 17:40:00,82.6,66.3,29.96,SE,135,1.0,2.0,58,0.00,,,0.00,Wunderground v.1.15,2013-06-01 21:40:00,
2013-06-01 17:45:00,82.9,67.1,29.96,East,101,0.0,2.0,59,0.00,,,0.00,Wunderground v.1.15,2013-06-01 21:45:00,
2013-06-01 17:50:00,83.2,66.4,29.95,ESE,113,3.0,7.0,57,0.00,,,0.00,Wunderground v.1.15,2013-06-01 21:50:00,
2013-06-01 17:55:00,82.8,66.5,29.95,ESE,106,0.0,7.0,58,0.00,,,0.00,Wunderground v.1.15,2013-06-01 21:55:00,
2013-06-01 18:01:00,82.8,67.0,29.95,East,98,1.0,2.0,59,0.00,,,0.00,Wunderground v.1.15,2013-06-01 22:01:00,
2013-06-01 18:06:00,82.8,67.5,29.95,ENE,63,0.0,6.0,60,0.00,,,0.00,Wunderground v.1.15,2013-06-01 22:06:00,
2013-06-01 18:11:00,82.5,66.2,29.95,ESE,119,12.0,12.0,58,0.00,,,0.00,Wunderground v.1.15,2013-06-01 22:11:00,
2013-06-01 18:16:00,82.0,66.3,29.96,ESE,103,0.0,12.0,59,0.00,,,0.00,Wunderground v.1.15,2013-06-01 22:16:00,
2013-06-01 18:21:00,81.8,67.0,29.95,NNE,33,0.0,5.0,61,0.00,,,0.00,Wunderground v.1.15,2013-06-01 22:21:00,
2013-06-01 18:26:00,81.7,66.5,29.95,NE,34,0.0,5.0,60,0.00,,,0.00,Wunderground v.1.15,2013-06-01 22:26:00,
2013-06-01 18:31:00,81.8,66.6,29.95,SSE,152,0.0,1.0,60,0.00,,,0.00,Wunderground v.1.15,2013-06-01 22:31:00,
2013-06-01 18:36:00,81.6,66.4,29.95,East,80,0.0,6.0,60,0.00,,,0.00,Wunderground v.1.15,2013-06-01 22:36:00,
2013-06-01 18:41:00,81.4,66.7,29.95,ESE,113,0.0,1.0,61,0.00,,,0.00,Wunderground v.1.15,2013-06-01 22:41:00,
2013-06-01 18:46:00,81.4,66.7,29.95,South,171,0.0,1.0,61,0.00,,,0.00,Wunderground v.1.15,2013-06-01 22:46:00,
2013-06-01 18:51:00,81.4,66.7,29.94,South,171,0.0,0.0,61,0.00,,,0.00,Wunderground v.1.15,2013-06-01 22:51:00,
2013-06-01 18:56:00,81.5,66.8,29.94,South,171,0.0,1.0,61,0.00,,,0.00,Wunderground v.1.15,2013-06-01 22:56:00,
2013-06-01 19:01:00,81.3,66.6,29.94,ESE,121,0.0,2.0,61,0.00,,,0.00,Wunderground v.1.15,2013-06-01 23:01:00,
2013-06-01 19:06:00,81.0,66.8,29.94,ESE,121,1.0,2.0,62,0.00,,,0.00,Wunderground v.1.15,2013-06-01 23:06:00,
2013-06-01 19:11:00,80.6,65.9,29.94,SE,126,2.0,6.0,61,0.00,,,0.00,Wunderground v.1.15,2013-06-01 23:11:00,
2013-06-01 19:16:00,80.3,66.1,29.94,ESE,107,0.0,6.0,62,0.00,,,0.00,Wunderground v.1.15,2013-06-01 23:16:00,
2013-06-01 19:21:00,80.1,66.4,29.94,ESE,107,1.0,1.0,63,0.00,,,0.00,Wunderground v.1.15,2013-06-01 23:21:00,
2013-06-01 19:26:00,79.9,66.6,29.94,ESE,107,0.0,1.0,64,0.00,,,0.00,Wunderground v.1.15,2013-06-01 23:26:00,
2013-06-01 19:31:00,79.6,66.8,29.94,ESE,113,4.0,4.0,65,0.00,,,0.00,Wunderground v.1.15,2013-06-01 23:31:00,
2013-06-01 19:36:00,79.5,66.3,29.94,SE,138,0.0,4.0,64,0.00,,,0.00,Wunderground v.1.15,2013-06-01 23:36:00,
2013-06-01 19:41:00,79.4,66.2,29.93,SE,140,1.0,1.0,64,0.00,,,0.00,Wunderground v.1.15,2013-06-01 23:41:00,
2013-06-01 19:46:00,79.3,66.1,29.93,ESE,111,0.0,8.0,64,0.00,,,0.00,Wunderground v.1.15,2013-06-01 23:46:00,
2013-06-01 19:51:00,79.2,66.4,29.93,SE,132,0.0,1.0,65,0.00,,,0.00,Wunderground v.1.15,2013-06-01 23:51:00,
2013-06-01 19:56:00,79.0,66.2,29.93,SE,138,0.0,1.0,65,0.00,,,0.00,Wunderground v.1.15,2013-06-01 23:56:00,
2013-06-01 20:01:00,78.8,66.0,29.92,SE,142,0.0,3.0,65,0.00,,,0.00,Wunderground v.1.15,2013-06-02 00:01:00,
2013-06-01 20:06:00,78.7,66.8,29.92,SE,143,0.0,3.0,67,0.00,,,0.00,Wunderground v.1.15,2013-06-02 00:06:00,
2013-06-01 20:11:00,78.3,66.4,29.93,SE,143,0.0,1.0,67,0.00,,,0.00,Wunderground v.1.15,2013-06-02 00:11:00,
2013-06-01 20:16:00,78.0,66.6,29.93,SE,144,0.0,1.0,68,0.00,,,0.00,Wunderground v.1.15,2013-06-02 00:16:00,
2013-06-01 20:21:00,77.6,66.6,29.93,SE,144,0.0,0.0,69,0.00,,,0.00,Wunderground v.1.15,2013-06-02 00:21:00,
2013-06-01 20:26:00,77.3,66.3,29.93,SE,144,0.0,1.0,69,0.00,,,0.00,Wunderground v.1.15,2013-06-02 00:26:00,
2013-06-01 20:31:00,77.1,66.6,29.93,SE,144,0.0,0.0,70,0.00,,,0.00,Wunderground v.1.15,2013-06-02 00:31:00,
2013-06-01 20:36:00,76.7,66.2,29.93,SE,144,0.0,0.0,70,0.00,,,0.00,Wunderground v.1.15,2013-06-02 00:36:00,
2013-06-01 20:41:00,76.5,66.0,29.93,SE,144,0.0,0.0,70,0.00,,,0.00,Wunderground v.1.15,2013-06-02 00:41:00,
2013-06-01 20:47:00,76.2,66.1,29.93,SE,144,0.0,0.0,71,0.00,,,0.00,Wunderground v.1.15,2013-06-02 00:47:00,
2013-06-01 20:52:00,75.9,66.2,29.93,SE,144,0.0,0.0,72,0.00,,,0.00,Wunderground v.1.15,2013-06-02 00:52:00,
2013-06-01 20:57:00,75.6,65.9,29.93,SE,144,0.0,0.0,72,0.00,,,0.00,Wunderground v.1.15,2013-06-02 00:57:00,
2013-06-01 21:02:00,75.3,66.0,29.93,SE,144,0.0,0.0,73,0.00,,,0.00,Wunderground v.1.15,2013-06-02 01:02:00,
2013-06-01 21:07:00,74.9,66.1,29.93,SE,144,0.0,0.0,74,0.00,,,0.00,Wunderground v.1.15,2013-06-02 01:07:00,
2013-06-01 21:12:00,74.6,66.1,29.93,SE,144,0.0,1.0,75,0.00,,,0.00,Wunderground v.1.15,2013-06-02 01:12:00,
2013-06-01 21:17:00,74.3,65.9,29.93,SE,144,0.0,1.0,75,0.00,,,0.00,Wunderground v.1.15,2013-06-02 01:17:00,
2013-06-01 21:22:00,74.1,66.0,29.94,SE,144,0.0,0.0,76,0.00,,,0.00,Wunderground v.1.15,2013-06-02 01:22:00,
2013-06-01 21:27:00,73.9,65.9,29.94,SE,144,0.0,0.0,76,0.00,,,0.00,Wunderground v.1.15,2013-06-02 01:27:00,
2013-06-01 21:32:00,73.6,65.9,29.94,SE,144,0.0,0.0,77,0.00,,,0.00,Wunderground v.1.15,2013-06-02 01:32:00,
2013-06-01 21:37:00,73.4,65.7,29.94,SE,144,0.0,0.0,77,0.00,,,0.00,Wunderground v.1.15,2013-06-02 01:37:00,
2013-06-01 21:42:00,73.1,65.8,29.94,SE,144,0.0,0.0,78,0.00,,,0.00,Wunderground v.1.15,2013-06-02 01:42:00,
2013-06-01 21:47:00,72.9,66.0,29.94,SE,144,0.0,0.0,79,0.00,,,0.00,Wunderground v.1.15,2013-06-02 01:47:00,
2013-06-01 21:52:00,72.6,65.7,29.94,SE,144,0.0,0.0,79,0.00,,,0.00,Wunderground v.1.15,2013-06-02 01:52:00,
2013-06-01 21:57:00,72.5,66.0,29.95,SE,144,0.0,0.0,80,0.00,,,0.00,Wunderground v.1.15,2013-06-02 01:57:00,
2013-06-01 22:02:00,72.4,65.9,29.95,SE,144,0.0,0.0,80,0.00,,,0.00,Wunderground v.1.15,2013-06-02 02:02:00,
2013-06-01 22:07:00,72.2,65.7,29.95,SE,144,0.0,0.0,80,0.00,,,0.00,Wunderground v.1.15,2013-06-02 02:07:00,
2013-06-01 22:12:00,72.1,65.9,29.95,SE,144,0.0,0.0,81,0.00,,,0.00,Wunderground v.1.15,2013-06-02 02:12:00,
2013-06-01 22:17:00,72.0,65.8,29.95,SE,144,0.0,0.0,81,0.00,,,0.00,Wunderground v.1.15,2013-06-02 02:17:00,
2013-06-01 22:22:00,71.7,65.6,29.96,SE,144,0.0,0.0,81,0.00,,,0.00,Wunderground v.1.15,2013-06-02 02:22:00,
2013-06-01 22:27:00,71.5,65.7,29.96,SE,144,0.0,0.0,82,0.00,,,0.00,Wunderground v.1.15,2013-06-02 02:27:00,
2013-06-01 22:32:00,71.3,65.9,29.96,SE,144,0.0,0.0,83,0.00,,,0.00,Wunderground v.1.15,2013-06-02 02:32:00,
2013-06-01 22:37:00,71.3,65.9,29.96,SE,144,0.0,0.0,83,0.00,,,0.00,Wunderground v.1.15,2013-06-02 02:37:00,
2013-06-01 22:42:00,71.2,65.8,29.97,SE,144,0.0,0.0,83,0.00,,,0.00,Wunderground v.1.15,2013-06-02 02:42:00,
2013-06-01 22:47:00,71.1,65.7,29.96,SE,144,0.0,0.0,83,0.00,,,0.00,Wunderground v.1.15,2013-06-02 02:47:00,
2013-06-01 22:52:00,71.2,65.8,29.96,SE,144,0.0,0.0,83,0.00,,,0.00,Wunderground v.1.15,2013-06-02 02:52:00,
2013-06-01 22:57:00,71.3,65.9,29.96,SE,144,0.0,1.0,83,0.00,,,0.00,Wunderground v.1.15,2013-06-02 02:57:00,
2013-06-01 23:02:00,71.3,65.9,29.95,SE,144,0.0,0.0,83,0.00,,,0.00,Wunderground v.1.15,2013-06-02 03:02:00,
2013-06-01 23:07:00,71.3,65.9,29.95,SE,144,0.0,0.0,83,0.00,,,0.00,Wunderground v.1.15,2013-06-02 03:07:00,
2013-06-01 23:12:00,71.1,65.7,29.96,SE,144,0.0,0.0,83,0.00,,,0.00,Wunderground v.1.15,2013-06-02 03:12:00,
2013-06-01 23:17:00,71.0,65.9,29.96,SE,144,0.0,0.0,84,0.00,,,0.00,Wunderground v.1.15,2013-06-02 03:17:00,
2013-06-01 23:22:00,70.7,65.6,29.95,SE,144,0.0,0.0,84,0.00,,,0.00,Wunderground v.1.15,2013-06-02 03:22:00,
2013-06-01 23:27:00,70.5,65.4,29.96,SE,144,0.0,0.0,84,0.00,,,0.00,Wunderground v.1.15,2013-06-02 03:27:00,
2013-06-01 23:32:00,70.4,65.7,29.96,SE,144,0.0,0.0,85,0.00,,,0.00,Wunderground v.1.15,2013-06-02 03:32:00,
2013-06-01 23:37:00,70.3,65.6,29.95,SE,144,0.0,0.0,85,0.00,,,0.00,Wunderground v.1.15,2013-06-02 03:37:00,
2013-06-01 23:42:00,70.3,65.6,29.95,SE,144,0.0,0.0,85,0.00,,,0.00,Wunderground v.1.15,2013-06-02 03:42:00,
2013-06-01 23:47:00,70.2,65.5,29.95,SE,144,0.0,0.0,85,0.00,,,0.00,Wunderground v.1.15,2013-06-02 03:47:00,
2013-06-01 23:52:00,70.2,65.5,29.96,SE,144,0.0,0.0,85,0.00,,,0.00,Wunderground v.1.15,2013-06-02 03:52:00,
2013-06-01 23:58:00,70.2,65.8,29.96,SE,144,0.0,0.0,86,0.00,,,0.00,Wunderground v.1.15,2013-06-02 03:58:00,